• Join FlightAware (Why Join?)
  • Login
  • US Flag 
03:58PM EDT


 

Airport Tracker/Info


-or-


 

Live Flight TrackerFlight Track Log ✈ EJA122 ✈ 20-Apr-2013 ✈ KJZI - KHVN

Flight Track Log - Related Links

Times and Time Zones

All times are in EDT time to prevent confusion due to time zone crossing. See the EJA122 flight status page for this flight to view local times or setup timezone preferences in your user account.

Time Position Orientation Groundspeed Altitude Reporting Facility
EDT Latitude Longitude Course Direction KTS MPH feet Rate Location/Type
02:07PM 32.7019 -79.9350 40° Northeast 207 238 5,800  Level Jacksonville Center
02:08PM 32.7547 -79.8792 42° Northeast 217 250 8,500 2,220 Climbing Jacksonville Center
02:09PM 32.8181 -79.8225 37° Northeast 252 290 10,300 1,620 Climbing Jacksonville Center
02:10PM 33.3805 -79.5514 38° Northeast  Level FlightAware Approximate
02:10PM 32.8958 -79.7581 35° Northeast 299 344 11,800  Level Jacksonville Center
02:11PM 33.4876 -79.4457 40° Northeast  Level FlightAware Approximate
02:11PM 32.9756 -79.6883 36° Northeast 336 387 13,300  Level Jacksonville Center
02:12PM 33.5943 -79.3392 40° Northeast  Level FlightAware Approximate
02:12PM 33.0572 -79.6186 36° Northeast 355 409 14,700  Level Jacksonville Center
02:13PM 33.1431 -79.5461 35° Northeast 362 417 16,100 1,380 Climbing Jacksonville Center
02:14PM 33.2286 -79.4708 36° Northeast 373 429 17,500 1,320 Climbing Jacksonville Center
02:15PM 33.3142 -79.3956 36° Northeast 373 429 18,800 1,200 Climbing Jacksonville Center
02:16PM 33.4019 -79.3222 35° Northeast 373 429 19,900 1,020 Climbing Jacksonville Center
02:17PM 33.4917 -79.2439 36° Northeast 385 443 20,900 900 Climbing Jacksonville Center
02:18PM 33.5853 -79.1653 35° Northeast 395 455 21,800 840 Climbing Jacksonville Center
02:19PM 33.6644 -79.0922 38° Northeast 395 455 22,600 900 Climbing Jacksonville Center
02:20PM 33.7581 -79.0108 36° Northeast 395 455 23,600 960 Climbing Jacksonville Center
02:21PM 33.8511 -78.9192 39° Northeast 411 473 24,600 960 Climbing Jacksonville Center
02:23PM 34.0356 -78.6992 45° Northeast 447 514 26,700 960 Climbing Washington Center
02:24PM 34.1278 -78.5997 42° Northeast 447 514 27,700 960 Climbing Washington Center
02:25PM 34.2219 -78.5028 40° Northeast 442 509 28,700 900 Climbing Washington Center
02:26PM 34.3267 -78.3958 40° Northeast 442 509 29,600 900 Climbing Washington Center
02:27PM 34.4228 -78.2986 40° Northeast 442 509 30,500 900 Climbing Washington Center
02:28PM 34.5269 -78.2186 32° Northeast 442 509 31,500 900 Climbing Washington Center
02:29PM 34.6350 -78.1364 32° Northeast 442 509 32,400 900 Climbing Washington Center
02:30PM 34.7431 -78.0589 31° Northeast 447 514 33,400 960 Climbing Washington Center
02:31PM 34.8450 -77.9783 33° Northeast 441 507 34,400 780 Climbing Washington Center
02:32PM 34.9508 -77.9006 31° Northeast 441 507 35,000 300 Climbing Washington Center
02:33PM 35.0631 -77.8150 32° Northeast 448 516 35,000  Level Washington Center
02:34PM 35.1792 -77.7292 31° Northeast 471 542 35,000  Level Washington Center
02:35PM 35.2978 -77.6381 32° Northeast 484 557 35,000  Level Washington Center
02:36PM 35.4097 -77.5544 31° Northeast 509 586 35,000  Level Washington Center
02:37PM 35.5364 -77.4631 30° Northeast 515 593 35,000  Level Washington Center
02:38PM 35.6608 -77.3689 32° Northeast 521 600 35,000  Level Washington Center
02:39PM 35.7833 -77.2717 33° Northeast 521 600 35,000  Level Washington Center
02:40PM 35.9119 -77.1769 31° Northeast 521 600 35,000  Level Washington Center
02:41PM 36.0342 -77.0767 34° Northeast 527 606 35,000  Level Washington Center
02:42PM 36.1625 -76.9814 31° Northeast 532 612 35,000  Level Washington Center
02:43PM 36.3014 -76.8756 32° Northeast 527 606 35,000  Level Washington Center
02:44PM 36.4278 -76.7742 33° Northeast 532 612 35,000  Level Washington Center
02:45PM 36.5558 -76.6728 32° Northeast 532 612 35,000  Level Washington Center
02:46PM 36.6861 -76.5736 31° Northeast 532 612 35,000  Level Washington Center
02:47PM 36.7994 -76.4789 34° Northeast 539 620 35,000  Level Washington Center
02:48PM 36.9294 -76.3767 32° Northeast 544 626 35,000  Level Washington Center
02:49PM 37.0553 -76.2764 32° Northeast 544 626 35,000  Level Washington Center
02:50PM 37.1853 -76.1706 33° Northeast 544 626 35,000  Level Washington Center
02:51PM 37.3317 -76.0619 31° Northeast 544 626 35,000  Level Washington Center
02:52PM 37.4594 -75.9581 33° Northeast 544 626 35,000  Level Washington Center
02:53PM 37.5889 -75.8539 33° Northeast 544 626 35,000  Level Washington Center
02:54PM 37.7183 -75.7467 33° Northeast 544 626 35,000  Level Washington Center
02:55PM 37.8500 -75.6392 33° Northeast 544 626 35,000 -60 Level Washington Center
02:56PM 37.9750 -75.5364 33° Northeast 544 626 34,900  Descending Washington Center
02:57PM 38.1064 -75.4361 31° Northeast 544 626 35,000  Climbing Washington Center
02:58PM 38.2481 -75.3539 24° Northeast 544 626 35,000  Level Washington Center
02:59PM 38.3686 -75.2686 29° Northeast 544 626 35,000 -60 Level Washington Center
03:00PM 38.5081 -75.1778 27° Northeast 544 626 34,900  Descending Washington Center
03:01PM 38.6475 -75.0919 26° Northeast 551 634 35,000  Climbing Washington Center
03:02PM 38.7783 -74.9872 32° Northeast 551 634 35,000  Level Washington Center
03:03PM 38.8983 -74.8528 41° Northeast 558 642 35,000 -120 Level Washington Center
03:04PM 39.0164 -74.7181 42° Northeast 558 642 34,800 -900 Descending Washington Center
03:05PM 39.1361 -74.5856 41° Northeast 564 649 33,200 -2,400 Descending Washington Center
03:06PM 39.2497 -74.4553 42° Northeast 559 643 30,100 -3,600 Descending Washington Center
03:07PM 39.3672 -74.3217 41° Northeast 554 638 26,000 -2,760 Descending Washington Center
03:09PM 39.6044 -74.0094 45° Northeast 527 606 21,000 -1,560 Descending New York Center
03:10PM 39.6631 -73.8422 65° Northeast 498 573 21,000  Level New York Center
03:11PM 39.7111 -73.6717 70° East 498 573 21,000  Level New York Center
03:12PM 39.7592 -73.4956 70° East 504 580 21,000 -480 Level New York Center
03:13PM 39.8281 -73.3117 64° Northeast 504 580 20,100 -1,440 Descending New York Center
03:15PM 40.0247 -73.1311 35° Northeast 457 526 17,000 -2,160 Descending Boston Center
03:16PM 40.1336 -73.0481 30° Northeast 452 520 14,100 -2,760 Descending Boston Center
03:17PM 40.2381 -72.9728 29° Northeast 442 509 11,500 -1,560 Descending Boston Center
03:18PM 40.3342 -72.9028 29° Northeast 418 481 11,000 -300 Descending Boston Center
03:19PM 40.4303 -72.8300 30° Northeast 399 459 11,000 -660 Level Boston Center
03:21PM 40.5667 -72.7167 32° Northeast 330 380 9,400 -1,380 Descending New York TRACON
03:21PM 40.6333 -72.7000 11° North 285 328 7,600 -2,040 Descending New York TRACON
03:22PM 40.7167 -72.7000 360° North 260 299 5,600 -1,680 Descending New York TRACON
03:24PM 40.7833 -72.7000 360° North 247 284 4,100 -720 Descending New York TRACON
03:25PM 40.8500 -72.7000 360° North 231 266 4,100  Level New York TRACON
03:25PM 40.9167 -72.7000 360° North 233 268 4,100  Level New York TRACON
03:26PM 40.9667 -72.7167 346° North 225 259 4,100 -540 Level New York TRACON
03:28PM 41.0333 -72.7667 331° Northwest 221 254 3,000 -960 Descending New York TRACON
03:29PM 41.0833 -72.8167 323° Northwest 219 252 2,100 -480 Descending New York TRACON
03:29PM 41.1167 -72.8500 323° Northwest 210 242 2,100  Level New York TRACON